Regional Weather Roundup
Issued by NWS

Home | Current Version | Previous Version | Text Only | Print | Product List | Glossary On
Versions: 1 2 3 4 5 6 7 8 9 10 11 12 13 14 15 16 17 18 19 20 21 22 23 24 25 26 27
000
ASCA42 TJSJ 251410
RWRPR
PUERTO RICO/U.S. VIRGIN ISLANDS HOURLY WEATHER ROUNDUP
NATIONAL WEATHER SERVICE SAN JUAN PR
1000 AM AST SAT FEB 25 2017

PRZ001>002-007>008-010-251500-
PUERTO RICO

CITY           SKY/WX    TMP DP  RH WIND       PRES   REMARKS
SAN JUAN LMM   PTSUNNY   82  70  65 E6        30.04R
AGUADILLA      SUNNY     81  64  57 E3        30.05R
CEIBA          PTSUNNY   82  72  69 NW5       30.06R
$$

VIZ001>002-251500-
U.S. VIRGIN ISLANDS

CITY           SKY/WX    TMP DP  RH WIND       PRES   REMARKS
CHARLOTTE AMA  CLOUDY    81  70  69 SE12      30.03R
CHRISTIANSTED  MOSUNNY   82  70  65 SE10      30.05R
$$

HOURLY WEATHER ROUNDUP FOR THE NEWS MEDIA

CITY           SKY/WX    TMP DP  RH WIND       PRES   REMARKS
ORLANDO        SUNNY     70  65  84 SW8       29.92R
NEW YORK       FOG       51  51 100 SE6       29.77F VSB 1/4
NEWARK         PTSUNNY   53  50  89 CALM      29.75S FOG
CHICAGO        FLURRIES  23  14  68 NW18      29.77R WCI   9
HARTFORD       CLOUDY    55  52  89 S6        29.84F
BOSTON         PTSUNNY   55  54  96 S12       29.83F
DALLAS         SUNNY     38  25  59 N3        30.23R
PHILADELPHIA   MOSUNNY   63  56  78 S14       29.70F
LOS ANGELES    PTCLDY    44  36  73 NE5       30.13S
WASHINGTON DC  PTSUNNY   64  56  75 S16       29.64F



USA.gov is the U.S. government's official web portal to all federal, state and local government web resources and services.